SPACEBEENZ-16 (52396 NORAD) Tracking and Keplerian Element Data

This shows tracking and keplerian element data for the satellite.

Feedback or suggestion? Click here.




ElementValue
Catalog52396
NameSPACEBEENZ-16
Epoch Orbit1194
Epoch Day192.20071617
Epoch Year2022
RAAN276.5999
Inclination97.45
Eccentricity0.0010742
Argument of Perigee95.2035
Mean Anonmoly265.0423
Mean Motion15.14152887
Decay Rate7.508E-05
L11 52396U 22047C 22192.20071617 .00007508 00000+0 41467-3 0 9994
L22 52396 97.4500 276.5999 0010742 95.2035 265.0423 15.14152887 11946

Live tracking and technical data element details for SPACEBEENZ-16 (NORAD 52396). SPACEBEENZ-16 can be tracked NOW for your location showing map with azimuth and elevation plus other details from your city location.

Track the satellite on the map from your city or location and see movement details for azimuth, elevation, latitude, longitude, range, height, and movement on the map or in text.







IsCatalogInMostPopularTable: catalog: 52396, numindb: 5
Update: records affected: 1



GetName: 52396 SPACEBEENZ-16

Hit Count: updated at: Sun, 14 Aug 2022 00:03:50 GMT